Location: Clatteringshaws Loch
(55.0508°N, 4.2860°W)
Time: 10:53:01
(UTC+01:00)

Daily predictions for brighter satellites

Satellite Brightness Start Highest point End
(mag) Time Altitude Azimuth Time Altitude Azimuth Time Altitude Azimuth
Cosmos 2263 Rocket 2.8 21:18:17 10° NW 21:23:44 57° WSW 21:29:11 10° SSE
Cosmos 1939 Rocket 3.1 21:21:10 10° S 21:25:12 72° WSW 21:29:12 10° NNW
Cosmos 1455 3.7 21:21:57 10° SW 21:25:34 42° WNW 21:29:10 10° N
Sich 1 Rocket 3.7 21:21:28 10° N 21:25:54 61° ENE 21:30:22 10° SSE
Terra 3.5 21:23:09 10° E 21:26:35 20° NE 21:30:03 10° N
ERS-1 Rocket 3.0 21:23:56 10° SSE 21:28:57 77° ENE 21:34:00 10° NNW
Cosmos 1908 Rocket 3.6 21:25:47 10° N 21:30:08 66° ENE 21:34:27 10° SSE
YAOGAN 6 2.6 21:28:34 10° SSE 21:32:13 85° ENE 21:35:50 10° NNW
H-2A R/B 3.7 21:29:40 10° ESE 21:32:59 22° NE 21:36:22 10° N
Meteor 1-14 Rocket 4.4 21:28:07 10° N 21:33:44 63° ENE 21:39:25 10° SSE
SeaSat 1 2.6 21:32:10 10° SE 21:37:05 70° NE 21:42:01 10° NNW
Cosmos 2322 Rocket 2.2 21:33:14 10° SSW 21:38:48 68° ESE 21:44:25 10° NE
SPOT 1/Viking Rocket 4.1 21:36:34 10° SE 21:41:31 46° ENE 21:46:30 10° N
COSMOS 2428 4.1 21:38:55 10° SE 21:42:44 19° E 21:46:35 10° ENE
Meteor 1-25 Rocket 4.4 21:37:27 10° N 21:43:00 57° ENE 21:48:29 10° SSE
Cosmos 1782 Rocket 3.7 21:40:06 10° N 21:44:25 57° ENE 21:48:44 10° SSE
USA 267 3.3 21:39:10 10° ENE 21:45:44 73° SSE 21:52:17 10° WSW
Cosmos 1777 Rocket 4.1 21:42:47 10° NNW 21:48:07 73° ENE 21:53:15 11° SE
Cosmos 2360 Rocket 2.7 21:42:58 10° S 21:48:07 38° ESE 21:53:20 10° NE
Cosmos 1733 Rocket 4.3 21:44:46 10° NNW 21:49:01 44° W 21:53:14 10° SSW
Cosmos 1980 Rocket 3.1 21:43:27 10° SW 21:49:01 54° NW 21:54:40 10° NNE
Abrixas rocket 3.5 21:46:21 10° SW 21:49:06 25° S 21:51:20 13° ESE
Cosmos 1844 4.0 21:44:50 10° NNW 21:50:31 59° NE 21:55:42 12° SE
USA 245 4.1 21:45:35 10° SSE 21:51:05 64° ENE 21:55:38 10° N
Cosmos 1992 Rocket 4.0 21:46:40 10° SSW 21:51:53 71° ESE 21:57:08 10° NNE
Okean 2 Rocket 3.4 21:48:24 10° N 21:52:52 53° ENE 21:57:03 11° SSE
Meteor 1-20 Rocket 4.3 21:52:44 10° N 21:58:16 65° ENE 22:03:41 11° SSE
NOAA 11 4.3 21:53:57 10° SSE 21:59:28 87° WSW 22:05:00 10° NNW
Cosmos 2322 4.2 21:55:05 10° S 22:00:22 40° ESE 22:05:40 10° NE
ATLAS 5 CENTAUR R/B 3.3 21:55:00 10° WNW 22:00:25 40° SW 22:06:18 10° SSE
Cosmos 2266 Rocket 4.1 21:55:06 10° NNW 22:01:24 90° W 22:07:45 10° S
ATLAS 3B R/B 3.8 21:55:06 10° WNW 22:01:53 43° N 22:08:19 10° E
MetOp-B 4.2 21:56:39 10° SSE 22:02:01 85° WSW 22:07:25 10° NNW
Cosmos 1862 Rocket 4.0 22:00:01 10° SSW 22:04:28 70° WNW 22:08:59 10° N
SL-16 R/B 2.3 22:02:11 10° SW 22:07:52 84° WNW 22:13:37 10° NNE
SPOT 5 2.8 22:04:25 10° SSE 22:09:13 89° WSW 22:13:48 10° NNW
Okean 1-7 3.5 22:05:41 10° SSE 22:09:50 44° E 22:14:02 10° NNE
Cosmos 1633 3.6 22:07:30 10° N 22:10:49 31° ENE 22:13:03 17° ESE
ASTEX 1 4.3 22:11:12 15° SE 22:14:47 35° ENE 22:19:18 10° N
ARGOS 3.2 22:10:42 10° SSE 22:16:05 84° WSW 22:21:31 10° NNW
GENESIS II 4.2 22:14:29 10° SW 22:18:33 75° SE 22:22:36 10° NE
Cosmos 2278 Rocket 2.5 22:16:16 10° NNW 22:21:54 58° NE 22:26:17 17° SE
Cosmos 2333 Rocket 3.7 22:20:42 16° SE 22:22:45 19° E 22:26:37 10° ENE
Cosmos 1703 Rocket 3.5 22:20:17 10° S 22:24:44 82° E 22:29:10 10° NNE
Cosmos 2237 Rocket 3.9 22:24:07 14° ESE 22:25:26 15° E 22:28:26 10° ENE
Cosmos 1844 Rocket 2.8 22:20:49 10° NW 22:26:23 75° WSW 22:30:49 17° SSE
Cosmos 2151 Rocket 3.8 22:22:21 10° N 22:26:45 57° ENE 22:29:45 19° SSE
PSLV R/B 4.1 22:26:07 22° ESE 22:27:13 29° ENE 22:29:44 10° N
Cosmos 1606 3.5 22:25:25 20° SE 22:27:17 32° E 22:30:42 10° NNE
Cosmos 2084 3.1 22:23:55 10° NW 22:27:44 88° SW 22:30:14 21° SE
CZ-4C R/B 2.8 22:23:26 10° NW 22:30:10 83° NE 22:36:23 17° SE
H-2A R/B 1.9 22:29:07 16° SSE 22:33:09 89° ENE 22:38:07 10° NNW
Cosmos 2221 Rocket 3.5 22:34:52 10° S 22:39:17 86° E 22:43:46 10° NNE
CARTOSAT-1 3.7 22:37:48 22° SE 22:40:31 62° ENE 22:44:49 10° N
SL-08 RB Rocket 4.2 22:41:09 14° S 22:45:02 58° WSW 22:49:33 10° NNW
Okean 1 Rocket 3.8 22:43:49 10° N 22:48:01 40° ENE 22:50:16 23° SE
Landsat 7 3.8 22:45:19 20° SSE 22:48:41 84° WSW 22:53:29 10° NNW
MOS 1-B Rocket 4.4 22:44:42 11° S 22:50:11 54° WSW 22:55:42 10° NNW
Cosmos 2219 Rocket 2.9 22:49:52 21° SSE 22:52:42 34° ESE 22:57:44 10° NE
Meteor 1-27 Rocket 4.2 22:52:43 22° SSE 22:55:54 43° E 23:01:08 10° NNE
Timation 1 Rocket 4.4 22:51:14 10° NW 22:57:16 77° NE 23:01:08 23° SE
Cosmos 1782 2.7 22:55:13 21° S 22:57:52 79° ESE 23:01:55 10° NNE
Cosmos 1674 Rocket 4.2 22:57:00 27° SE 22:58:36 36° E 23:02:35 10° NNE
CENTAUR R/B 3.9 22:52:48 10° W 22:59:19 47° NNW 23:06:42 10° ENE
USA 129 2.5 22:58:47 10° N 23:00:07 43° NNW 23:00:07 43° NNW
Cosmos 1937 Rocket 3.8 22:57:57 10° NNW 23:03:11 57° ENE 23:06:12 24° SE
Terra 1.8 23:00:54 24° SSE 23:03:48 85° WSW 23:08:37 10° NNW
H-2A R/B 2.3 23:06:08 24° S 23:08:37 66° WSW 23:13:00 10° NNW
IGS 5A 3.5 23:07:08 28° S 23:09:16 80° WSW 23:13:28 10° NNW
NOSS 3-1 (C) 4.0 23:06:40 22° S 23:09:49 36° ESE 23:15:48 10° ENE
Cosmos 2150 Rocket 4.3 23:04:57 10° NNW 23:10:23 66° ENE 23:13:27 26° SE
Meteor 1-11 Rocket 3.7 23:06:54 10° NNW 23:12:28 85° WSW 23:15:50 25° S
S3M 4.1 23:08:44 23° SSE 23:12:37 61° E 23:18:46 10° NNE
Spot 4 3.9 23:10:25 29° SSE 23:12:53 72° ENE 23:17:39 10° NNW
USA 229 DEB 3.6 23:07:30 10° SW 23:14:19 71° SE 23:21:18 10° NE
USA 229 3.6 23:07:36 10° SW 23:14:25 70° SE 23:21:24 10° NE
SeaSat 1 4.0 23:11:32 13° SSW 23:15:00 27° WSW 23:19:12 10° NW
Cosmos 2297 3.9 23:09:40 10° NNW 23:15:25 67° NE 23:18:45 25° SE
Meteor 1-10 Rocket 4.3 23:10:44 15° S 23:15:44 88° ESE 23:21:37 10° NNE
Cosmos 990 Rocket 4.2 23:10:38 10° NNW 23:15:45 59° ENE 23:18:28 27° SE
Cosmos 1346 Rocket 3.0 23:14:50 36° SSE 23:16:07 53° E 23:20:01 10° NNE
Aureole 2 Rocket 4.3 23:17:52 13° ENE 23:17:52 13° ENE 23:18:27 10° ENE
ALOS 2 4.2 23:14:22 17° E 23:16:32 24° ENE 23:20:04 10° N
Cosmos 2237 4.2 23:11:24 10° SSW 23:17:10 88° ESE 23:22:56 10° NE
Cosmos 1602 3.9 23:13:36 10° NNW 23:17:26 69° W 23:19:06 32° S
Cosmos 2369 Rocket 4.0 23:13:30 10° NNW 23:18:10 26° NNE 23:22:49 10° E
SL-19 R/B 4.5 23:12:01 10° NNE 23:18:11 64° ESE 23:21:57 23° S
CZ-4 R/B 4.1 23:14:04 10° NNE 23:18:42 49° E 23:20:41 31° SSE
Cosmos 1975 Rocket 4.5 23:20:40 22° ESE 23:21:36 24° E 23:25:09 10° NNE
Cosmos 2322 Rocket 3.9 23:18:08 10° WSW 23:23:17 35° NW 23:28:28 10° NNE
Cosmos 1898 Rocket 3.4 23:19:26 10° NNW 23:24:40 84° WSW 23:27:11 31° SSE
NOSS 3-1 (A) 4.1 23:23:09 27° SSE 23:25:17 35° ESE 23:31:13 10° ENE
Abrixas rocket 4.2 23:22:43 10° WSW 23:24:01 17° SW 23:24:01 17° SW
COSMOS 2428 2.6 23:20:30 10° SSW 23:26:12 83° ESE 23:31:58 10° NE
Cosmos 1300 Rocket 3.6 23:22:59 10° NNW 23:27:20 75° W 23:29:16 32° S
Cosmos 1975 4.4 23:25:05 10° N 23:28:23 24° ENE 23:29:41 20° E
USA 267 3.4 23:22:19 10° ENE 23:28:53 78° N 23:35:26 10° W
CZ-2C R/B 4.2 23:26:50 20° ESE 23:29:19 31° ENE 23:33:42 10° N
Cosmos 2360 Rocket 2.9 23:26:26 10° SW 23:32:00 55° NW 23:37:37 10° NNE
Cosmos 1943 Rocket 4.2 23:29:47 10° NNW 23:34:15 23° NNE 23:38:42 10° ENE
Iridium 4 Rocket 3.0 23:30:21 10° N 23:34:34 78° W 23:36:15 35° S
Cosmos 1745 Rocket 4.2 23:32:16 10° NNW 23:38:34 70° W 23:42:27 25° S
Cosmos 1980 4.0 23:38:33 32° SSE 23:40:46 48° ESE 23:46:12 10° NE
Meteor 2-11 Rocket 4.4 23:37:23 27° S 23:40:52 75° E 23:46:59 10° NNE
Cosmos 1812 4.1 23:41:48 24° E 23:42:01 24° E 23:45:12 10° NE
Cosmos 1633 4.2 23:42:35 10° NNW 23:45:46 28° W 23:47:21 20° SW
SL-16 R/B 3.3 23:45:20 24° ESE 23:46:11 25° ESE 23:50:46 10° NE
Cosmos 1607 4.2 23:40:40 10° NW 23:46:59 68° NE 23:51:23 21° ESE
Cosmos 1536 3.2 23:48:07 10° NNW 23:52:07 56° W 23:53:24 37° SSW
SL-16 R/B 4.3 23:47:58 10° W 23:52:48 28° NNW 23:57:40 10° NNE
ASTEX 1 4.3 23:50:42 20° SSW 23:53:45 42° W 23:58:29 10° NNW
